TimeCDT,TemperatureF,Dew PointF,Humidity,Sea Level PressureIn,VisibilityMPH,Wind Direction,Wind SpeedMPH,Gust SpeedMPH,PrecipitationIn,Events,Conditions,WindDirDegrees,DateUTC
12:58 AM,72.3,72.0,99,29.91,10.0,ENE,3.5,-,N/A,,Clear,60,2013-07-13 05:58:00
1:18 AM,71.6,71.6,100,29.90,10.0,North,2.3,-,N/A,,Light Drizzle,10,2013-07-13 06:18:00
1:30 AM,71.6,71.6,100,29.89,10.0,WSW,2.3,-,N/A,,Partly Cloudy,250,2013-07-13 06:30:00
1:58 AM,72.0,71.8,99,29.91,10.0,North,3.5,-,0.00,,Partly Cloudy,350,2013-07-13 06:58:00
2:58 AM,72.0,70.7,96,29.91,10.0,North,2.3,-,N/A,,Clear,10,2013-07-13 07:58:00
3:58 AM,71.4,71.1,99,29.90,10.0,NNW,3.5,-,N/A,,Clear,340,2013-07-13 08:58:00
4:58 AM,70.9,70.5,99,29.89,10.0,ENE,1.2,-,N/A,,Clear,60,2013-07-13 09:58:00
5:58 AM,71.2,70.0,96,29.91,10.0,East,2.3,-,N/A,,Clear,100,2013-07-13 10:58:00
6:58 AM,71.4,70.3,96,29.93,10.0,Calm,Calm,-,N/A,,Clear,0,2013-07-13 11:58:00
7:58 AM,74.8,72.0,91,29.93,10.0,Calm,Calm,-,N/A,,Clear,0,2013-07-13 12:58:00
8:55 AM,80.1,73.0,79,29.94,10.0,South,4.6,-,N/A,,Mostly Cloudy,180,2013-07-13 13:55:00
9:55 AM,83.8,72.1,68,29.94,10.0,Variable,3.5,-,N/A,,Mostly Cloudy,0,2013-07-13 14:55:00
10:55 AM,86.0,73.4,66,29.95,10.0,East,5.8,-,N/A,,Mostly Cloudy,100,2013-07-13 15:55:00
11:12 AM,86.0,73.4,66,29.95,10.0,SSE,6.9,-,N/A,Thunderstorm,Thunderstorm,150,2013-07-13 16:12:00
11:55 AM,81.9,70.2,68,29.95,10.0,ESE,10.4,-,N/A,Thunderstorm,Thunderstorm,110,2013-07-13 16:55:00
12:06 PM,80.6,68.0,65,29.94,10.0,Variable,3.5,-,N/A,Rain-Thunderstorm,Light Thunderstorms and Rain,0,2013-07-13 17:06:00
12:22 PM,80.6,69.8,70,29.94,10.0,East,4.6,-,N/A,Thunderstorm,Thunderstorm,90,2013-07-13 17:22:00
12:55 PM,80.6,73.4,79,29.95,10.0,West,2.3,-,N/A,Thunderstorm,Mostly Cloudy,260,2013-07-13 17:55:00
1:01 PM,80.6,73.4,79,29.95,10.0,Variable,2.3,-,N/A,Thunderstorm,Thunderstorm,0,2013-07-13 18:01:00
1:30 PM,82.4,73.4,74,29.95,10.0,NNW,11.5,-,N/A,Rain-Thunderstorm,Light Thunderstorms and Rain,330,2013-07-13 18:30:00
1:55 PM,80.4,72.7,77,29.94,10.0,North,5.8,-,0.00,Thunderstorm,Thunderstorm,350,2013-07-13 18:55:00
2:15 PM,80.6,71.6,74,29.96,10.0,ESE,5.8,-,N/A,Rain-Thunderstorm,Light Thunderstorms and Rain,110,2013-07-13 19:15:00
2:55 PM,74.1,69.4,85,29.94,10.0,South,8.1,-,0.02,Rain-Thunderstorm,Light Thunderstorms and Rain,180,2013-07-13 19:55:00
3:12 PM,75.2,69.8,83,29.92,10.0,WSW,4.6,-,N/A,,Mostly Cloudy,250,2013-07-13 20:12:00
3:55 PM,80.4,71.8,75,29.92,10.0,Variable,4.6,-,0.00,,Mostly Cloudy,0,2013-07-13 20:55:00
4:58 PM,83.3,70.5,65,29.91,10.0,South,8.1,-,N/A,,Partly Cloudy,170,2013-07-13 21:58:00
5:58 PM,81.7,72.3,73,29.91,10.0,SE,8.1,-,N/A,,Clear,130,2013-07-13 22:58:00
6:58 PM,82.4,71.6,70,29.94,10.0,South,4.6,-,N/A,,Partly Cloudy,180,2013-07-13 23:58:00
7:08 PM,82.4,71.6,70,29.93,10.0,South,5.8,-,N/A,,Mostly Cloudy,180,2013-07-14 00:08:00
7:18 PM,82.4,71.6,70,29.93,10.0,South,5.8,-,N/A,,Mostly Cloudy,180,2013-07-14 00:18:00
7:43 PM,80.6,71.6,74,29.94,10.0,South,3.5,-,N/A,,Overcast,170,2013-07-14 00:43:00
7:53 PM,78.8,73.4,83,29.94,10.0,WNW,5.8,-,N/A,,Mostly Cloudy,300,2013-07-14 00:53:00
7:58 PM,79.3,72.1,79,29.94,10.0,WNW,6.9,-,N/A,,Mostly Cloudy,300,2013-07-14 00:58:00
8:05 PM,78.8,71.6,78,29.94,10.0,WNW,8.1,-,N/A,Thunderstorm,Thunderstorm,290,2013-07-14 01:05:00
8:20 PM,77.0,69.8,78,29.94,10.0,NW,4.6,-,N/A,Thunderstorm,Scattered Clouds,320,2013-07-14 01:20:00
8:50 PM,73.4,68.0,83,29.96,10.0,North,18.4,25.3,N/A,Thunderstorm,Mostly Cloudy,10,2013-07-14 01:50:00
9:00 PM,73.4,68.0,83,29.97,5.0,NNE,15.0,25.3,N/A,Rain-Thunderstorm,Rain,20,2013-07-14 02:00:00
9:05 PM,71.6,69.8,94,29.97,1.2,North,16.1,19.6,N/A,Rain,Heavy Rain,10,2013-07-14 02:05:00
9:10 PM,71.6,69.8,94,29.98,0.8,NNW,10.4,19.6,N/A,Rain,Heavy Rain,340,2013-07-14 02:10:00
9:12 PM,71.6,69.8,94,29.98,0.8,NNW,9.2,19.6,N/A,Rain-Thunderstorm,Heavy Thunderstorms and Rain,340,2013-07-14 02:12:00
9:17 PM,71.6,69.8,94,29.98,1.5,NE,5.8,-,N/A,Rain-Thunderstorm,Thunderstorms and Rain,40,2013-07-14 02:17:00
9:22 PM,71.6,69.8,94,29.98,5.0,ENE,4.6,-,N/A,Rain-Thunderstorm,Light Thunderstorms and Rain,70,2013-07-14 02:22:00
9:27 PM,71.6,69.8,94,30.00,7.0,East,5.8,-,N/A,Rain,Light Rain,100,2013-07-14 02:27:00
9:32 PM,71.6,69.8,94,30.00,9.0,NNE,6.9,-,N/A,Rain,Light Rain,30,2013-07-14 02:32:00
9:37 PM,71.6,69.8,94,30.00,10.0,North,6.9,-,N/A,Rain,Light Rain,360,2013-07-14 02:37:00
9:52 PM,71.6,69.8,94,30.01,5.0,NNE,6.9,-,N/A,Rain,Heavy Rain,30,2013-07-14 02:52:00
9:57 PM,69.8,69.8,100,30.01,6.0,NE,8.1,-,N/A,Rain,Light Rain,40,2013-07-14 02:57:00
9:58 PM,70.7,69.1,95,30.01,6.0,NE,6.9,-,0.66,Rain,Light Rain,40,2013-07-14 02:58:00
10:08 PM,69.8,69.8,100,30.00,10.0,ENE,9.2,-,N/A,,Light Drizzle,60,2013-07-14 03:08:00
10:10 PM,69.8,69.8,100,30.00,10.0,ENE,9.2,-,N/A,,Mostly Cloudy,70,2013-07-14 03:10:00
10:20 PM,69.8,68.0,94,30.00,10.0,ENE,8.1,-,N/A,,Light Drizzle,60,2013-07-14 03:20:00
10:45 PM,69.8,68.0,94,30.00,10.0,NE,6.9,-,N/A,,Light Drizzle,40,2013-07-14 03:45:00
10:47 PM,69.8,68.0,94,30.00,10.0,NE,6.9,-,N/A,Rain,Light Rain,40,2013-07-14 03:47:00
10:58 PM,69.4,68.7,98,29.99,8.0,NE,8.1,-,0.02,Rain,Light Rain,50,2013-07-14 03:58:00
11:03 PM,69.8,68.0,94,29.99,9.0,ENE,6.9,-,N/A,Rain,Light Rain,70,2013-07-14 04:03:00
11:41 PM,69.8,68.0,94,29.98,10.0,Variable,3.5,-,N/A,,Clear,0,2013-07-14 04:41:00